Powrót do katalogu

TIANQI-15

AktywnyŁącznośćVLEO
NORAD 49027·PAYLOAD·🇨🇳 China

Wystrzelony Jul 19, 2021 z Xichang Satellite Launch Center

Loading…

Następne Przeloty (najbliższe 24 godziny)

TLE

ŚwieżeSource: Space-Track

Epoka: Sep 14, 2026, 15:39 UTC

1 49027U 21065B   26257.65271728  .00004467  00000-0  26165-3 0  9990
2 49027  34.9995  23.3708 0005302 126.2887 233.8314 15.11237931282818

Śledź TIANQI-15 w czasie rzeczywistym z AllMySat

Download on the App Store